Tracking 25405 objects as of 26-Jan-2022
HD Live streaming from Space Station
objects crossing your sky now

STARLINK-1257

Track STARLINK-1257 now!
10-day predictions
STARLINK-1257 is classified as:


NORAD ID: 45402
Int'l Code: 2020-019AU
Perigee: 553.4 km
Apogee: 555.2 km
Inclination: 53.1 °
Period: 95.6 minutes
Semi major axis: 6925 km
RCS: Unknown
Launch date: March 18, 2020
Source: United States (US)
Launch site: AIR FORCE EASTERN TEST RANGE (AFETR)
aabbcc
Your satellite tracking list
Your tracking list is empty




NASA's NSSDC Master Catalog

Two Line Element Set (TLE):
1 45402U 20019AU  22026.46923668  .00000767  00000-0  70389-4 0  9994
2 45402  53.0552  44.8328 0001269  79.2434 280.8698 15.06408168103399
Source of the keplerian elements: AFSPC